Year,Month,Day,Hour,Minute,Value (Times are PST for windspeed in km/hr)
2014,03,19,00,00,3.60
2014,03,19,00,01,3.50
2014,03,19,00,02,3.40
2014,03,19,00,03,2.90
2014,03,19,00,04,4.60
2014,03,19,00,05,4.00
2014,03,19,00,06,1.90
2014,03,19,00,07,3.80
2014,03,19,00,08,2.80
2014,03,19,00,09,4.30
2014,03,19,00,10,4.30
2014,03,19,00,11,4.60
2014,03,19,00,12,5.90
2014,03,19,00,13,6.10
2014,03,19,00,14,4.10
2014,03,19,00,15,4.30
2014,03,19,00,16,3.00
2014,03,19,00,17,3.40
2014,03,19,00,18,4.70
2014,03,19,00,19,4.80
2014,03,19,00,20,5.30
2014,03,19,00,21,5.90
2014,03,19,00,22,6.80
2014,03,19,00,23,4.50
2014,03,19,00,24,5.60
2014,03,19,00,25,6.20
2014,03,19,00,26,6.20
2014,03,19,00,27,7.30
2014,03,19,00,28,7.50
2014,03,19,00,29,7.30
2014,03,19,00,30,7.80
2014,03,19,00,31,4.90
2014,03,19,00,32,5.30
2014,03,19,00,33,6.50
2014,03,19,00,34,4.80
2014,03,19,00,35,5.70
2014,03,19,00,36,6.60
2014,03,19,00,37,4.60
2014,03,19,00,38,6.70
2014,03,19,00,39,5.80
2014,03,19,00,40,8.80
2014,03,19,00,41,7.00
2014,03,19,00,42,3.70
2014,03,19,00,43,6.10
2014,03,19,00,44,6.10
2014,03,19,00,45,6.40
2014,03,19,00,46,7.00
2014,03,19,00,47,7.00
2014,03,19,00,48,7.10
2014,03,19,00,49,7.20
2014,03,19,00,50,5.90
2014,03,19,00,51,8.50
2014,03,19,00,52,6.30
2014,03,19,00,53,3.10
2014,03,19,00,54,7.60
2014,03,19,00,55,7.60
2014,03,19,00,56,5.60
2014,03,19,00,57,6.00
2014,03,19,00,58,7.50
2014,03,19,00,59,7.20
2014,03,19,01,00,5.60
2014,03,19,01,01,8.40
2014,03,19,01,02,7.60
2014,03,19,01,03,5.40
2014,03,19,01,04,5.30
2014,03,19,01,05,8.90
2014,03,19,01,06,6.80
2014,03,19,01,07,5.30
2014,03,19,01,08,7.30
2014,03,19,01,09,6.20
2014,03,19,01,10,3.90
2014,03,19,01,11,6.50
2014,03,19,01,12,6.10
2014,03,19,01,13,6.30
2014,03,19,01,14,4.20
2014,03,19,01,15,4.10
2014,03,19,01,16,3.20
2014,03,19,01,17,2.20
2014,03,19,01,18,1.50
2014,03,19,01,19,0.10
2014,03,19,01,20,0.90
2014,03,19,01,21,2.00
2014,03,19,01,22,3.70
2014,03,19,01,23,0.00
2014,03,19,01,24,1.20
2014,03,19,01,25,1.40
2014,03,19,01,26,3.00
2014,03,19,01,27,4.50
2014,03,19,01,28,3.30
2014,03,19,01,29,2.40
2014,03,19,01,30,1.20
2014,03,19,01,31,4.40
2014,03,19,01,32,0.00
2014,03,19,01,33,1.20
2014,03,19,01,34,0.50
2014,03,19,01,35,0.10
2014,03,19,01,36,1.50
2014,03,19,01,37,2.50
2014,03,19,01,38,1.90
2014,03,19,01,39,6.10
2014,03,19,01,40,4.70
2014,03,19,01,41,5.20
2014,03,19,01,42,5.10
2014,03,19,01,43,4.30
2014,03,19,01,44,2.30
2014,03,19,01,45,3.40
2014,03,19,01,46,6.10
2014,03,19,01,47,7.60
2014,03,19,01,48,6.10
2014,03,19,01,49,3.90
2014,03,19,01,50,8.00
2014,03,19,01,51,6.10
2014,03,19,01,52,8.30
2014,03,19,01,53,7.70
2014,03,19,01,54,12.00
2014,03,19,01,55,8.50
2014,03,19,01,56,9.10
2014,03,19,01,57,7.20
2014,03,19,01,58,8.10
2014,03,19,01,59,7.90
2014,03,19,02,00,9.70
2014,03,19,02,01,11.60
2014,03,19,02,02,6.10
2014,03,19,02,03,8.50
2014,03,19,02,04,7.20
2014,03,19,02,05,7.40
2014,03,19,02,06,7.40
2014,03,19,02,07,8.60
2014,03,19,02,08,8.60
2014,03,19,02,09,8.00
2014,03,19,02,10,7.30
2014,03,19,02,11,7.90
2014,03,19,02,12,8.00
2014,03,19,02,13,11.00
2014,03,19,02,14,8.90
2014,03,19,02,15,7.20
2014,03,19,02,16,7.10
2014,03,19,02,17,9.20
2014,03,19,02,18,7.40
2014,03,19,02,19,12.10
2014,03,19,02,20,12.10
2014,03,19,02,21,8.50
2014,03,19,02,22,8.60
2014,03,19,02,23,8.10
2014,03,19,02,24,7.10
2014,03,19,02,25,6.90
2014,03,19,02,26,10.90
2014,03,19,02,27,11.80
2014,03,19,02,28,10.70
2014,03,19,02,29,8.80
2014,03,19,02,30,8.20
2014,03,19,02,31,7.70
2014,03,19,02,32,6.40
2014,03,19,02,33,3.40
2014,03,19,02,34,2.30
2014,03,19,02,35,5.50
2014,03,19,02,36,3.70
2014,03,19,02,37,3.10
2014,03,19,02,38,6.50
2014,03,19,02,39,4.00
2014,03,19,02,40,0.10
2014,03,19,02,41,0.00
2014,03,19,02,42,1.00
2014,03,19,02,43,1.40
2014,03,19,02,44,0.30
2014,03,19,02,45,2.60
2014,03,19,02,46,3.90
2014,03,19,02,47,2.80
2014,03,19,02,48,5.20
2014,03,19,02,49,3.40
2014,03,19,02,50,1.20
2014,03,19,02,51,3.40
2014,03,19,02,52,0.80
2014,03,19,02,53,1.90
2014,03,19,02,54,3.00
2014,03,19,02,55,1.50
2014,03,19,02,56,2.60
2014,03,19,02,57,2.60
2014,03,19,02,58,3.50
2014,03,19,02,59,1.40
2014,03,19,03,00,1.80
2014,03,19,03,01,5.20
2014,03,19,03,02,4.80
2014,03,19,03,03,7.20
2014,03,19,03,04,2.60
2014,03,19,03,05,3.50
2014,03,19,03,06,3.70
2014,03,19,03,07,1.60
2014,03,19,03,08,3.60
2014,03,19,03,09,2.70
2014,03,19,03,10,7.20
2014,03,19,03,11,5.40
2014,03,19,03,12,9.80
2014,03,19,03,13,3.80
2014,03,19,03,14,6.70
2014,03,19,03,15,10.10
2014,03,19,03,16,6.60
2014,03,19,03,17,4.20
2014,03,19,03,18,7.40
2014,03,19,03,19,9.40
2014,03,19,03,20,11.60
2014,03,19,03,21,13.30
2014,03,19,03,22,11.60
2014,03,19,03,23,10.80
2014,03,19,03,24,12.60
2014,03,19,03,25,13.90
2014,03,19,03,26,10.00
2014,03,19,03,27,12.40
2014,03,19,03,28,13.60
2014,03,19,03,29,13.70
2014,03,19,03,30,10.90
2014,03,19,03,31,13.00
2014,03,19,03,32,10.00
2014,03,19,03,33,11.80
2014,03,19,03,34,7.70
2014,03,19,03,35,6.80
2014,03,19,03,36,12.00
2014,03,19,03,37,8.40
2014,03,19,03,38,6.40
2014,03,19,03,39,6.20
2014,03,19,03,40,3.60
2014,03,19,03,41,3.30
2014,03,19,03,42,6.60
2014,03,19,03,43,4.00
2014,03,19,03,44,3.20
2014,03,19,03,45,3.40
2014,03,19,03,46,4.30
2014,03,19,03,47,4.40
2014,03,19,03,48,4.00
2014,03,19,03,49,5.40
2014,03,19,03,50,4.30
2014,03,19,03,51,2.10
2014,03,19,03,52,4.70
2014,03,19,03,53,3.40
2014,03,19,03,54,2.90
2014,03,19,03,55,3.90
2014,03,19,03,56,8.20
2014,03,19,03,57,2.60
2014,03,19,03,58,2.40
2014,03,19,03,59,2.80
2014,03,19,04,00,4.80
2014,03,19,04,01,4.30
2014,03,19,04,02,5.50
2014,03,19,04,03,3.30
2014,03,19,04,04,3.30
2014,03,19,04,05,6.20
2014,03,19,04,06,3.70
2014,03,19,04,07,4.40
2014,03,19,04,08,3.80
2014,03,19,04,09,7.30
2014,03,19,04,10,4.40
2014,03,19,04,11,4.10
2014,03,19,04,12,3.10
2014,03,19,04,13,5.20
2014,03,19,04,14,5.20
2014,03,19,04,15,3.00
2014,03,19,04,16,2.50
2014,03,19,04,17,5.40
2014,03,19,04,18,4.40
2014,03,19,04,19,1.60
2014,03,19,04,20,1.20
2014,03,19,04,21,2.40
2014,03,19,04,22,6.60
2014,03,19,04,23,3.80
2014,03,19,04,24,8.40
2014,03,19,04,25,4.20
2014,03,19,04,26,4.80
2014,03,19,04,27,6.70
2014,03,19,04,28,3.40
2014,03,19,04,29,6.20
2014,03,19,04,30,1.20
2014,03,19,04,31,3.60
2014,03,19,04,32,5.00
2014,03,19,04,33,2.90
2014,03,19,04,34,10.80
2014,03,19,04,35,8.30
2014,03,19,04,36,6.60
2014,03,19,04,37,14.80
2014,03,19,04,38,13.50
2014,03,19,04,39,8.90
2014,03,19,04,40,9.40
2014,03,19,04,41,10.90
2014,03,19,04,42,14.00
2014,03,19,04,43,13.60
2014,03,19,04,44,7.30
2014,03,19,04,45,11.00
2014,03,19,04,46,5.60
2014,03,19,04,47,12.00
2014,03,19,04,48,8.10
2014,03,19,04,49,10.80
2014,03,19,04,50,9.40
2014,03,19,04,51,10.20
2014,03,19,04,52,13.50
2014,03,19,04,53,14.60
2014,03,19,04,54,6.20
2014,03,19,04,55,13.60
2014,03,19,04,56,10.30
2014,03,19,04,57,11.40
2014,03,19,04,58,5.20
2014,03,19,04,59,6.40
2014,03,19,05,00,12.50
2014,03,19,05,01,7.00
2014,03,19,05,02,9.10
2014,03,19,05,03,8.60
2014,03,19,05,04,9.70
2014,03,19,05,05,5.90
2014,03,19,05,06,9.70
2014,03,19,05,07,11.30
2014,03,19,05,08,9.70
2014,03,19,05,09,11.70
2014,03,19,05,10,11.20
2014,03,19,05,11,9.70
2014,03,19,05,12,16.50
2014,03,19,05,13,8.00
2014,03,19,05,14,13.90
2014,03,19,05,15,9.40
2014,03,19,05,16,9.10
2014,03,19,05,17,8.50
2014,03,19,05,18,10.00
2014,03,19,05,19,7.40
2014,03,19,05,20,12.70
2014,03,19,05,21,11.10
2014,03,19,05,22,9.40
2014,03,19,05,23,9.30
2014,03,19,05,24,12.90
2014,03,19,05,25,6.80
2014,03,19,05,26,14.50
2014,03,19,05,27,8.90
2014,03,19,05,28,17.00
2014,03,19,05,29,14.10
2014,03,19,05,30,8.30
2014,03,19,05,31,10.60
2014,03,19,05,32,8.70
2014,03,19,05,33,6.70
2014,03,19,05,34,9.40
2014,03,19,05,35,10.90
2014,03,19,05,36,10.40
2014,03,19,05,37,9.90
2014,03,19,05,38,10.10
2014,03,19,05,39,10.40
2014,03,19,05,40,11.30
2014,03,19,05,41,16.80
2014,03,19,05,42,16.90
2014,03,19,05,43,8.80
2014,03,19,05,44,12.80
2014,03,19,05,45,14.80
2014,03,19,05,46,10.00
2014,03,19,05,47,11.80
2014,03,19,05,48,15.40
2014,03,19,05,49,13.20
2014,03,19,05,50,10.70
2014,03,19,05,51,5.90
2014,03,19,05,52,9.80
2014,03,19,05,53,8.20
2014,03,19,05,54,14.20
2014,03,19,05,55,8.90
2014,03,19,05,56,10.00
2014,03,19,05,57,10.90
2014,03,19,05,58,16.90
2014,03,19,05,59,12.60
2014,03,19,06,00,9.00
2014,03,19,06,01,12.90
2014,03,19,06,02,12.20
2014,03,19,06,03,9.40
2014,03,19,06,04,13.80
2014,03,19,06,05,8.00
2014,03,19,06,06,9.70
2014,03,19,06,07,3.80
2014,03,19,06,08,6.50
2014,03,19,06,09,6.00
2014,03,19,06,10,7.20
2014,03,19,06,11,10.00
2014,03,19,06,12,9.40
2014,03,19,06,13,11.00
2014,03,19,06,14,9.40
2014,03,19,06,15,9.90
2014,03,19,06,16,12.00
2014,03,19,06,17,5.90
2014,03,19,06,18,8.20
2014,03,19,06,19,7.90
2014,03,19,06,20,10.90
2014,03,19,06,21,12.30
2014,03,19,06,22,8.80
2014,03,19,06,23,10.10
2014,03,19,06,24,11.20
2014,03,19,06,25,9.50
2014,03,19,06,26,7.30
2014,03,19,06,27,6.80
2014,03,19,06,28,5.50
2014,03,19,06,29,6.10
2014,03,19,06,30,6.10
2014,03,19,06,31,2.30
2014,03,19,06,32,4.50
2014,03,19,06,33,5.80
2014,03,19,06,34,10.00
2014,03,19,06,35,8.70
2014,03,19,06,36,9.70
2014,03,19,06,37,12.10
2014,03,19,06,38,7.80
2014,03,19,06,39,6.50
2014,03,19,06,40,13.90
2014,03,19,06,41,7.00
2014,03,19,06,42,5.90
2014,03,19,06,43,3.70
2014,03,19,06,44,3.40
2014,03,19,06,45,5.70
2014,03,19,06,46,6.10
2014,03,19,06,47,9.30
2014,03,19,06,48,4.60
2014,03,19,06,49,3.10
2014,03,19,06,50,5.50
2014,03,19,06,51,1.20
2014,03,19,06,52,3.20
2014,03,19,06,53,4.40
2014,03,19,06,54,3.70
2014,03,19,06,55,3.30
2014,03,19,06,56,1.10
2014,03,19,06,57,2.60
2014,03,19,06,58,5.70
2014,03,19,06,59,2.30
2014,03,19,07,00,4.50
2014,03,19,07,01,8.40
2014,03,19,07,02,3.40
2014,03,19,07,03,0.30
2014,03,19,07,04,4.80
2014,03,19,07,05,1.90
2014,03,19,07,06,2.40
2014,03,19,07,07,3.80
2014,03,19,07,08,10.40
2014,03,19,07,09,11.00
2014,03,19,07,10,7.00
2014,03,19,07,11,2.70
2014,03,19,07,12,0.70
2014,03,19,07,13,7.60
2014,03,19,07,14,15.10
2014,03,19,07,15,8.20
2014,03,19,07,16,4.50
2014,03,19,07,17,2.20
2014,03,19,07,18,1.90
2014,03,19,07,19,8.60
2014,03,19,07,20,12.00
2014,03,19,07,21,6.20
2014,03,19,07,22,5.50
2014,03,19,07,23,3.50
2014,03,19,07,24,6.40
2014,03,19,07,25,7.70
2014,03,19,07,26,3.50
2014,03,19,07,27,4.10
2014,03,19,07,28,5.90
2014,03,19,07,29,4.30
2014,03,19,07,30,0.00
2014,03,19,07,31,3.60
2014,03,19,07,32,3.50
2014,03,19,07,33,7.90
2014,03,19,07,34,11.30
2014,03,19,07,35,2.40
2014,03,19,07,36,5.10
2014,03,19,07,37,10.90
2014,03,19,07,38,9.70
2014,03,19,07,39,5.00
2014,03,19,07,40,5.40
2014,03,19,07,41,2.40
2014,03,19,07,42,3.70
2014,03,19,07,43,7.90
2014,03,19,07,44,4.50
2014,03,19,07,45,1.80
2014,03,19,07,46,2.10
2014,03,19,07,47,2.30
2014,03,19,07,48,7.20
2014,03,19,07,49,2.50
2014,03,19,07,50,1.50
2014,03,19,07,51,4.10
2014,03,19,07,52,4.40
2014,03,19,07,53,5.00
2014,03,19,07,54,9.20
2014,03,19,07,55,3.00
2014,03,19,07,56,0.20
2014,03,19,07,57,3.10
2014,03,19,07,58,3.40
2014,03,19,07,59,1.20
2014,03,19,08,00,4.70
2014,03,19,08,01,3.50
2014,03,19,08,02,7.40
2014,03,19,08,03,8.60
2014,03,19,08,04,8.10
2014,03,19,08,05,6.40
2014,03,19,08,06,3.50
2014,03,19,08,07,6.70
2014,03,19,08,08,9.90
2014,03,19,08,09,5.70
2014,03,19,08,10,3.60
2014,03,19,08,11,1.90
2014,03,19,08,12,1.00
2014,03,19,08,13,1.20
2014,03,19,08,14,2.20
2014,03,19,08,15,3.10
2014,03,19,08,16,7.00
2014,03,19,08,17,3.10
2014,03,19,08,18,3.40
2014,03,19,08,19,3.70
2014,03,19,08,20,2.40
2014,03,19,08,21,5.10
2014,03,19,08,22,4.00
2014,03,19,08,23,4.00
2014,03,19,08,24,1.60
2014,03,19,08,25,0.90
2014,03,19,08,26,0.10
2014,03,19,08,27,3.70
2014,03,19,08,28,1.90
2014,03,19,08,29,5.40
2014,03,19,08,30,7.50
2014,03,19,08,31,5.50
2014,03,19,08,32,5.40
2014,03,19,08,33,3.30
2014,03,19,08,34,3.70
2014,03,19,08,35,7.70
2014,03,19,08,36,3.40
2014,03,19,08,37,13.70
2014,03,19,08,38,15.00
2014,03,19,08,39,14.90
2014,03,19,08,40,13.90
2014,03,19,08,41,9.90
2014,03,19,08,42,13.00
2014,03,19,08,43,15.30
2014,03,19,08,44,19.20
2014,03,19,08,45,12.90
2014,03,19,08,46,18.30
2014,03,19,08,47,20.90
2014,03,19,08,48,19.50
2014,03,19,08,49,15.00
2014,03,19,08,50,20.30
2014,03,19,08,51,15.70
2014,03,19,08,52,10.40
2014,03,19,08,53,16.40
2014,03,19,08,54,19.00
2014,03,19,08,55,20.10
2014,03,19,08,56,16.80
2014,03,19,08,57,22.70
2014,03,19,08,58,27.10
2014,03,19,08,59,28.70
2014,03,19,09,00,26.30
2014,03,19,09,01,28.40
2014,03,19,09,02,24.00
2014,03,19,09,03,22.70
2014,03,19,09,04,22.80
2014,03,19,09,05,32.30
2014,03,19,09,06,32.70
2014,03,19,09,07,37.70
2014,03,19,09,08,34.40
2014,03,19,09,09,21.70
2014,03,19,09,10,28.30
2014,03,19,09,11,26.50
2014,03,19,09,12,32.60
2014,03,19,09,13,33.50
2014,03,19,09,14,28.70
2014,03,19,09,15,30.50
2014,03,19,09,16,27.70
2014,03,19,09,17,25.20
2014,03,19,09,18,22.00
2014,03,19,09,19,29.30
2014,03,19,09,20,23.70
2014,03,19,09,21,15.40
2014,03,19,09,22,13.30
2014,03,19,09,23,16.70
2014,03,19,09,24,20.40
2014,03,19,09,25,20.30
2014,03,19,09,26,15.00
2014,03,19,09,27,13.30
2014,03,19,09,28,19.90
2014,03,19,09,29,16.80
2014,03,19,09,30,20.30
2014,03,19,09,31,21.90
2014,03,19,09,32,15.30
2014,03,19,09,33,10.90
2014,03,19,09,34,18.90
2014,03,19,09,35,11.30
2014,03,19,09,36,7.20
2014,03,19,09,37,17.00
2014,03,19,09,38,19.90
2014,03,19,09,39,19.10
2014,03,19,09,40,25.80
2014,03,19,09,41,24.40
2014,03,19,09,42,25.70
2014,03,19,09,43,15.10
2014,03,19,09,44,11.50
2014,03,19,09,45,19.70
2014,03,19,09,46,26.10
2014,03,19,09,47,28.40
2014,03,19,09,48,22.50
2014,03,19,09,49,24.80
2014,03,19,09,50,18.80
2014,03,19,09,51,19.50
2014,03,19,09,52,21.30
2014,03,19,09,53,21.00
2014,03,19,09,54,20.80
2014,03,19,09,55,19.40
2014,03,19,09,56,30.40
2014,03,19,09,57,25.40
2014,03,19,09,58,16.20
2014,03,19,09,59,13.10
2014,03,19,10,00,17.50
2014,03,19,10,01,14.50
2014,03,19,10,02,14.30
2014,03,19,10,03,30.00
2014,03,19,10,04,25.40
2014,03,19,10,05,7.30
2014,03,19,10,06,14.80
2014,03,19,10,07,16.00
2014,03,19,10,08,14.90
2014,03,19,10,09,23.20
2014,03,19,10,10,18.30
2014,03,19,10,11,17.70
2014,03,19,10,12,13.90
2014,03,19,10,13,17.80
2014,03,19,10,14,22.20
2014,03,19,10,15,5.40
2014,03,19,10,16,17.50
2014,03,19,10,17,17.50
2014,03,19,10,18,22.50
2014,03,19,10,19,20.50
2014,03,19,10,20,21.60
2014,03,19,10,21,12.00
2014,03,19,10,22,26.20
2014,03,19,10,23,21.20
2014,03,19,10,24,16.10
2014,03,19,10,25,15.70
2014,03,19,10,26,12.20
2014,03,19,10,27,18.60
2014,03,19,10,28,14.90
2014,03,19,10,29,18.30
2014,03,19,10,30,19.60
2014,03,19,10,31,30.30
2014,03,19,10,32,29.50
2014,03,19,10,33,24.90
2014,03,19,10,34,32.60
2014,03,19,10,35,32.60
2014,03,19,10,36,29.80
2014,03,19,10,37,20.20
2014,03,19,10,38,24.40
2014,03,19,10,39,17.20
2014,03,19,10,40,14.60
2014,03,19,10,41,20.60
2014,03,19,10,42,22.60
2014,03,19,10,43,20.10
2014,03,19,10,44,17.90
2014,03,19,10,45,22.80
2014,03,19,10,46,30.90
2014,03,19,10,47,26.00
2014,03,19,10,48,25.70
2014,03,19,10,49,20.00
2014,03,19,10,50,24.00
2014,03,19,10,51,27.40
2014,03,19,10,52,24.80
2014,03,19,10,53,26.80
2014,03,19,10,54,32.80
2014,03,19,10,55,27.80
2014,03,19,10,56,27.40
2014,03,19,10,57,31.10
2014,03,19,10,58,26.50
2014,03,19,10,59,35.00
2014,03,19,11,00,30.30
2014,03,19,11,01,30.10
2014,03,19,11,02,25.80
2014,03,19,11,03,26.90
2014,03,19,11,04,25.30
2014,03,19,11,05,20.30
2014,03,19,11,06,27.40
2014,03,19,11,07,25.20
2014,03,19,11,08,30.10
2014,03,19,11,09,26.40
2014,03,19,11,10,26.90
2014,03,19,11,11,27.00
2014,03,19,11,12,45.80
2014,03,19,11,13,32.40
2014,03,19,11,14,41.30
2014,03,19,11,15,34.60
2014,03,19,11,16,39.00
2014,03,19,11,17,31.70
2014,03,19,11,18,27.60
2014,03,19,11,19,27.40
2014,03,19,11,20,27.90
2014,03,19,11,21,23.70
2014,03,19,11,22,25.10
2014,03,19,11,23,26.10
2014,03,19,11,24,27.50
2014,03,19,11,25,22.70
2014,03,19,11,26,31.70
2014,03,19,11,27,27.00
2014,03,19,11,28,32.40
2014,03,19,11,29,33.80
2014,03,19,11,30,26.10
2014,03,19,11,31,27.00
2014,03,19,11,32,20.30
2014,03,19,11,33,24.50
2014,03,19,11,34,22.10
2014,03,19,11,35,32.30
2014,03,19,11,36,28.60
2014,03,19,11,37,22.40
2014,03,19,11,38,30.10
2014,03,19,11,39,29.30
2014,03,19,11,40,21.20
2014,03,19,11,41,26.00
2014,03,19,11,42,20.60
2014,03,19,11,43,26.70
2014,03,19,11,44,26.70
2014,03,19,11,45,23.60
2014,03,19,11,46,17.70
2014,03,19,11,47,25.30
2014,03,19,11,48,25.70
2014,03,19,11,49,20.50
2014,03,19,11,50,25.00
2014,03,19,11,51,23.90
2014,03,19,11,52,26.40
2014,03,19,11,53,25.20
2014,03,19,11,54,28.10
2014,03,19,11,55,28.40
2014,03,19,11,56,26.00
2014,03,19,11,57,22.80
2014,03,19,11,58,27.60
2014,03,19,11,59,33.60
2014,03,19,12,00,27.20
2014,03,19,12,01,24.90
2014,03,19,12,02,28.40
2014,03,19,12,03,22.20
2014,03,19,12,04,19.00
2014,03,19,12,05,28.30
2014,03,19,12,06,22.60
2014,03,19,12,07,22.90
2014,03,19,12,08,20.40
2014,03,19,12,09,26.60
2014,03,19,12,10,22.50
2014,03,19,12,11,26.10
2014,03,19,12,12,25.30
2014,03,19,12,13,25.50
2014,03,19,12,14,23.50
2014,03,19,12,15,23.70
2014,03,19,12,16,24.70
2014,03,19,12,17,20.20
2014,03,19,12,18,27.20
2014,03,19,12,19,27.90
2014,03,19,12,20,23.40
2014,03,19,12,21,23.10
2014,03,19,12,22,23.10
2014,03,19,12,23,23.90
2014,03,19,12,24,23.20
2014,03,19,12,25,22.40
2014,03,19,12,26,18.80
2014,03,19,12,27,27.40
2014,03,19,12,28,25.20
2014,03,19,12,29,25.80
2014,03,19,12,30,27.00
2014,03,19,12,31,23.90
2014,03,19,12,32,18.50
2014,03,19,12,33,24.90
2014,03,19,12,34,30.60
2014,03,19,12,35,29.80
2014,03,19,12,36,28.70
2014,03,19,12,37,37.40
2014,03,19,12,38,33.80
2014,03,19,12,39,33.00
2014,03,19,12,40,30.70
2014,03,19,12,41,30.00
2014,03,19,12,42,32.10
2014,03,19,12,43,28.50
2014,03,19,12,44,34.20
2014,03,19,12,45,29.10
2014,03,19,12,46,22.10
2014,03,19,12,47,27.40
2014,03,19,12,48,29.40
2014,03,19,12,49,32.00
2014,03,19,12,50,23.00
2014,03,19,12,51,18.40
2014,03,19,12,52,25.20
2014,03,19,12,53,26.90
2014,03,19,12,54,33.90
2014,03,19,12,55,32.70
2014,03,19,12,56,32.30
2014,03,19,12,57,29.60
2014,03,19,12,58,25.60
2014,03,19,12,59,14.10
2014,03,19,13,00,20.60
2014,03,19,13,01,28.70
2014,03,19,13,02,27.90
2014,03,19,13,03,33.90
2014,03,19,13,04,30.60
2014,03,19,13,05,34.40
2014,03,19,13,06,35.40
2014,03,19,13,07,40.60
2014,03,19,13,08,32.80
2014,03,19,13,09,37.60
2014,03,19,13,10,32.50
2014,03,19,13,11,33.60
2014,03,19,13,12,31.80
2014,03,19,13,13,31.00
2014,03,19,13,14,26.20
2014,03,19,13,15,35.70
2014,03,19,13,16,29.80
2014,03,19,13,17,28.60
2014,03,19,13,18,30.80
2014,03,19,13,19,24.40
2014,03,19,13,20,32.50
2014,03,19,13,21,38.80
2014,03,19,13,22,39.30
2014,03,19,13,23,39.50
2014,03,19,13,24,37.40
2014,03,19,13,25,30.10
2014,03,19,13,26,38.90
2014,03,19,13,27,39.50
2014,03,19,13,28,47.60
2014,03,19,13,29,35.80
2014,03,19,13,30,35.60
2014,03,19,13,31,46.50
2014,03,19,13,32,24.10
2014,03,19,13,33,35.60
2014,03,19,13,34,42.60
2014,03,19,13,35,41.00
2014,03,19,13,36,41.50
2014,03,19,13,37,36.40
2014,03,19,13,38,39.50
2014,03,19,13,39,32.30
2014,03,19,13,40,43.40
2014,03,19,13,41,35.10
2014,03,19,13,42,30.70
2014,03,19,13,43,36.50
2014,03,19,13,44,34.10
2014,03,19,13,45,36.30
2014,03,19,13,46,33.00
2014,03,19,13,47,40.30
2014,03,19,13,48,44.50
2014,03,19,13,49,43.00
2014,03,19,13,50,45.40
2014,03,19,13,51,40.70
2014,03,19,13,52,42.40
2014,03,19,13,53,42.90
2014,03,19,13,54,46.80
2014,03,19,13,55,36.90
2014,03,19,13,56,35.90
2014,03,19,13,57,38.50
2014,03,19,13,58,30.40
2014,03,19,13,59,46.10
2014,03,19,14,00,42.60
2014,03,19,14,01,37.60
2014,03,19,14,02,42.50
2014,03,19,14,03,31.70
2014,03,19,14,04,40.70
2014,03,19,14,05,43.50
2014,03,19,14,06,53.30
2014,03,19,14,07,40.20
2014,03,19,14,08,37.20
2014,03,19,14,09,36.40
2014,03,19,14,10,46.20
2014,03,19,14,11,45.30
2014,03,19,14,12,33.50
2014,03,19,14,13,33.60
2014,03,19,14,14,30.10
2014,03,19,14,15,38.40
2014,03,19,14,16,32.00
2014,03,19,14,17,34.60
2014,03,19,14,18,30.60
2014,03,19,14,19,33.40
2014,03,19,14,20,39.70
2014,03,19,14,21,34.90
2014,03,19,14,22,31.80
2014,03,19,14,23,29.90
2014,03,19,14,24,35.20
2014,03,19,14,25,33.80
2014,03,19,14,26,29.30
2014,03,19,14,27,40.50
2014,03,19,14,28,36.80
2014,03,19,14,29,31.60
2014,03,19,14,30,37.90
2014,03,19,14,31,35.30
2014,03,19,14,32,31.80
2014,03,19,14,33,35.00
2014,03,19,14,34,31.70
2014,03,19,14,35,28.20
2014,03,19,14,36,33.20
2014,03,19,14,37,36.40
2014,03,19,14,38,36.60
2014,03,19,14,39,39.50
2014,03,19,14,40,43.00
2014,03,19,14,41,34.60
2014,03,19,14,42,34.60
2014,03,19,14,43,8.80
2014,03,19,14,44,0.00
2014,03,19,14,45,0.00
2014,03,19,14,46,0.00
2014,03,19,14,47,0.00
2014,03,19,14,48,0.00
2014,03,19,14,49,0.00
2014,03,19,14,50,0.00
2014,03,19,14,51,0.00
2014,03,19,14,52,0.00
2014,03,19,14,53,0.00
2014,03,19,14,54,0.00
2014,03,19,14,55,0.00
2014,03,19,14,56,0.00
2014,03,19,14,57,0.00
2014,03,19,14,58,0.00
2014,03,19,14,59,0.00
2014,03,19,15,00,0.00
2014,03,19,15,01,0.00
2014,03,19,15,02,0.00
2014,03,19,15,03,0.00
2014,03,19,15,04,0.00
2014,03,19,15,05,0.00
2014,03,19,15,06,0.00
2014,03,19,15,07,0.00
2014,03,19,15,08,0.00
2014,03,19,15,09,0.00
2014,03,19,15,10,0.00
2014,03,19,15,11,0.00
2014,03,19,15,12,0.00
2014,03,19,15,13,0.00
2014,03,19,15,14,0.00
2014,03,19,15,15,0.00
2014,03,19,15,16,0.00
2014,03,19,15,17,0.00
2014,03,19,15,18,0.00
2014,03,19,15,19,0.00
2014,03,19,15,20,0.00
2014,03,19,15,21,0.00
2014,03,19,15,22,0.00
2014,03,19,15,23,0.00
2014,03,19,15,24,0.00
2014,03,19,15,25,0.00
2014,03,19,15,26,0.00
2014,03,19,15,27,0.00
2014,03,19,15,28,0.00
2014,03,19,15,29,0.00
2014,03,19,15,30,0.00
2014,03,19,15,31,0.00
2014,03,19,15,32,0.00
2014,03,19,15,33,0.00
2014,03,19,15,34,0.00
2014,03,19,15,35,0.00
2014,03,19,15,36,0.00
2014,03,19,15,37,0.00
2014,03,19,15,38,0.00
2014,03,19,15,39,0.00
2014,03,19,15,40,0.00
2014,03,19,15,41,0.00
2014,03,19,15,42,0.00
2014,03,19,15,43,0.00
2014,03,19,15,44,0.00
2014,03,19,15,45,0.00
2014,03,19,15,46,0.00
2014,03,19,15,47,0.00
2014,03,19,15,48,0.00
2014,03,19,15,49,0.00
2014,03,19,15,50,0.00
2014,03,19,15,51,0.00
2014,03,19,15,52,0.00
2014,03,19,15,53,0.00
2014,03,19,15,54,0.00
2014,03,19,15,55,0.00
2014,03,19,15,56,0.00
2014,03,19,15,57,0.00
2014,03,19,15,58,0.00
2014,03,19,15,59,0.00
2014,03,19,16,00,0.00
2014,03,19,16,01,0.00
2014,03,19,16,02,0.00
2014,03,19,16,03,0.00
2014,03,19,16,04,0.00
2014,03,19,16,05,0.00
2014,03,19,16,06,0.00
2014,03,19,16,07,0.00
2014,03,19,16,08,0.00
2014,03,19,16,09,0.00
2014,03,19,16,10,0.00
2014,03,19,16,11,0.00
2014,03,19,16,12,0.00
2014,03,19,16,13,0.00
2014,03,19,16,14,0.00
2014,03,19,16,15,0.00
2014,03,19,16,16,0.00
2014,03,19,16,17,0.00
2014,03,19,16,18,0.00
2014,03,19,16,19,0.00
2014,03,19,16,20,0.00
2014,03,19,16,21,0.00
2014,03,19,16,22,0.00
2014,03,19,16,23,0.00
2014,03,19,16,24,0.00
2014,03,19,16,25,0.00
2014,03,19,16,26,0.00
2014,03,19,16,27,0.00
2014,03,19,16,28,0.00
2014,03,19,16,29,0.00
2014,03,19,16,30,0.00
2014,03,19,16,31,0.00
2014,03,19,16,32,0.00
2014,03,19,16,33,0.00
2014,03,19,16,34,0.00
2014,03,19,16,35,0.00
2014,03,19,16,36,0.00
2014,03,19,16,37,0.00
2014,03,19,16,38,0.00
2014,03,19,16,39,0.00
2014,03,19,16,40,0.00
2014,03,19,16,41,0.00
2014,03,19,16,42,0.00
2014,03,19,16,43,0.00
2014,03,19,16,44,0.00
2014,03,19,16,45,0.00
2014,03,19,16,46,0.00
2014,03,19,16,47,0.00
2014,03,19,16,48,0.00
2014,03,19,16,49,0.00
2014,03,19,16,50,0.00
2014,03,19,16,51,0.00
2014,03,19,16,52,0.00
2014,03,19,16,53,0.00
2014,03,19,16,54,0.00
2014,03,19,16,55,0.00
2014,03,19,16,56,0.00
2014,03,19,16,57,0.00
2014,03,19,16,58,0.00
2014,03,19,16,59,0.00
2014,03,19,17,00,0.00
2014,03,19,17,01,0.00
2014,03,19,17,02,0.00
2014,03,19,17,03,0.00
2014,03,19,17,04,0.00
2014,03,19,17,05,0.00
2014,03,19,17,06,0.00
2014,03,19,17,07,0.00
2014,03,19,17,08,0.00
2014,03,19,17,09,0.00
2014,03,19,17,10,0.00
2014,03,19,17,11,0.00
2014,03,19,17,12,0.00
2014,03,19,17,13,0.00
2014,03,19,17,14,0.00
2014,03,19,17,15,0.00
2014,03,19,17,16,0.00
2014,03,19,17,17,0.00
2014,03,19,17,18,0.00
2014,03,19,17,19,0.00
2014,03,19,17,20,0.00
2014,03,19,17,21,0.00
2014,03,19,17,22,0.00
2014,03,19,17,23,0.00
2014,03,19,17,24,0.00
2014,03,19,17,25,0.00
2014,03,19,17,26,0.00
2014,03,19,17,27,0.00
2014,03,19,17,28,0.00
2014,03,19,17,29,0.00
2014,03,19,17,30,0.00
2014,03,19,17,31,0.00
2014,03,19,17,32,0.00
2014,03,19,17,33,0.00
2014,03,19,17,34,0.00
2014,03,19,17,35,0.00
2014,03,19,17,36,0.00
2014,03,19,17,37,0.00
2014,03,19,17,38,0.00
2014,03,19,17,39,0.00
2014,03,19,17,40,0.00
2014,03,19,17,41,0.00
2014,03,19,17,42,0.00
2014,03,19,17,43,0.00
2014,03,19,17,44,0.00
2014,03,19,17,45,0.00
2014,03,19,17,46,0.00